Location: Newark
(40.9833°N, 0.0333°W)
Time: 01:50:01
(UTC+00:00)

deb Explorer IX - Pass Details

Date: 30 October 2020
Orbit: 537 x 1105 km, 38.8° (Epoch: 02 December)

Event Time Altitude Azimuth Distance (km) Brightness Sun altitude
Rises 04:23:53 0° 230° (SW) 3,180 - -24.1°
Reaches altitude 10° 04:26:16 10° 223° (SW) 2,345 - -23.6°
Exits shadow 04:28:53 26° 205° (SSW) 1,575 ? -23.1°
Maximum altitude 04:31:30 41° 154° (SSE) 1,250 ? -22.7°
Drops below altitude 10° 04:37:34 10° 87° (E) 2,725 ? -21.5°
Sets 04:40:33 0° 81° (E) 3,754 ? -20.9°
